Regional Weather Roundup
Issued by NWS

Home | Current Version | Previous Version | Graphics & Text | Print | Product List | Glossary On
Versions: 1 2 3 4 5 6 7 8 9 10 11 12 13 14 15 16 17 18 19 20 21 22 23 24 25 26 27 28 29 30 31 32 33 34 35 36 37 38 39 40 41 42 43 44 45 46 47 48 49 50
000
ASUS43 KLMK 231710
RWRKY
KENTUCKY REGIONAL WEATHER ROUNDUP
NATIONAL WEATHER SERVICE LOUISVILLE KY
100 PM EDT THU OCT 23 2014

NOTE "FAIR" INDICATES FEW OR NO CLOUDS BELOW 12,000 FEET
WITH NO SIGNIFICANT WEATHER AND/OR OBSTRUCTIONS TO VISIBILITY.

KYZ001>023-026-027-061>063-070>075-231800-
WESTERN AND SOUTH CENTRAL KENTUCKY

CITY           SKY/WX    TMP DP  RH WIND       PRES   REMARKS
PADUCAH        PTSUNNY   58  44  60 E3        30.22F
HENDERSON      SUNNY    N/A N/A N/A E6        30.23F
OWENSBORO      SUNNY     57  43  59 NE6       30.24F
HOPKINSVILLE   SUNNY     58  43  57 E6        30.21F
BOWLING GREEN  SUNNY     57  42  57 VRB3      30.23F
GLASGOW        SUNNY     57  40  53 CALM      30.21F
$$

KYZ024-025-028>034-038-045-046-053-231800-
NORTH CENTRAL KENTUCKY

CITY           SKY/WX    TMP DP  RH WIND       PRES   REMARKS
LOUISVILLE/SDF PTSUNNY   57  41  55 S7        30.23F
LOUISVILLE/LOU SUNNY     56  42  59 W3        30.24S
FORT KNOX      SUNNY     56  39  54 SE1       30.22F
$$

KYZ035>037-039>044-047>052-055>060-089>105-231800-
NORTHEAST KENTUCKY

CITY           SKY/WX    TMP DP  RH WIND       PRES   REMARKS
LEXINGTON      SUNNY     59  41  51 VRB3      30.21F
COVINGTON      MOSUNNY   56  40  55 CALM      30.23F
FRANKFORT      SUNNY     57  41  55 VRB6      30.21F
$$

KYZ054-064>069-076>088-106>120-231800-
SOUTHEAST KENTUCKY

CITY           SKY/WX    TMP DP  RH WIND       PRES   REMARKS
JACKSON        MOSUNNY   53  38  56 CALM      30.21F
LONDON         SUNNY     57  39  51 E10       30.20F
SOMERSET       SUNNY     55  41  58 NE6       30.22F
MIDDLESBORO    SUNNY     56  40  53 CALM      30.19F
MONTICELLO     SUNNY     57  42  57 NE5       30.22F
$$




USA.gov is the U.S. government's official web portal to all federal, state and local government web resources and services.